Showing default

COSMOS 2165, 21779

Orbit data source: Space-Track

COSMOS 2165, 21779 is a payload satellite owned by UNKS RF (CIS) in LEO that was launched on Tue, 12 Nov 1991 UTC via a TSIKLON-3 launch vehicle from the Plesetsk Missile And Space Complex (PKMTR). Payloads include a variety of satellites, spacecraft, and rockets equipped with specific instruments for various scientific and technological missions. These include communications satellites like Starlink; space stations such as the ISS; scientific satellites like the Hubble; Earth observation satellites from companies like Planet Labs, Umbra, and HawkEye 360; GPS; miniature CubeSats for education and research; and military/defense satellites.

Loading next visibility...
COSMOS 2165 details
Identifier
21779, 1991-077A
Orbit
LEO
Last TLE update6 hours ago
Origin
Flag of CISUNKS RF (CIS)
ManufacturerNPO PM
MissionDefense Communications
Bus & MotorSTRELA-3, Unknown motor
Mass225 kg wet, 225 kg dry
Launch date (UTC)
1991-11-12 (33 years ago)
Launch vehicle
TSIKLON-3
Launch site
Plesetsk Missile And Space Complex (PKMTR)
Object type
Payload
Rocket body
Debris
Shape & HBRCyl, 1.6 m
Radar Cross Section1.257 m², Large (>1 m²)

Expand to show TLE details & history

TLE from 6 hours ago
0 COSMOS 2165
1 21779U 91077A   24361.71809181  .00000053  00000-0  22680-3 0  9990
2 21779  82.6054 215.5061 0010190 195.2469 232.8989 12.64900875529324
Epoch: 2024-12-26T17:14Z
Definitive object data (Epoch: 2024-12-26T17:14:03.132Z)
Latitude66.97599°
Longitude-121.00946°
Altitude1,419.129 km
Speed7.155 km/s
True Right ascension15h 32m 47s
True Declination66° 51' 45"
Sunlit
Object was in daylight at TLE epoch
Visualization TLE readout
Latitude59.72677°
Longitude28.35928°
Altitude1,410.843 km
Speed7.161 km/s
Apparent Right ascension07h 03m 38s
Apparent Declination37° 40' 31"
Sunlit
Object is in daylight
Visualization observer readout
Local Sidereal Time22:35:19
Azimuth39.173° NE
Elevation1.499°
Doppler factor1
Orbital elements
Apogee altitude1,408.023 km
Perigee altitude1,392.171 km
Semi-major axis7,778.234 km
Eccentricity0.001019
Inclination82.6054°
RAAN215.5061°
Arg. of periapsis195.2469°
True anomaly232.80584°
Mean anomaly232.8989°
Eccentric anomaly232.85236°
Mean motion3.16389 °/min
BSTAR0.0002268
Orbital period113.78 mins
Loading maneuver chart data...
Loading historical data...
Loading historical data...
Loading historical data...
Loading historical data...
Loading historical data...
Loading historical data...
Loading historical data...

COSMOS 2165 Visibility forecast

Observer location: undefined°, undefined

Span
Click to sort rows by Start time (UTC) header in descending order
Start Az.
Max El. time (UTC)
Max El. Az.
Max El.
End time (UTC)
End Az.
13 mins2024-12-27 01:05:02.722Z15.795° NNE2024-12-27 01:11:02.722Z68.337° E26.161°2024-12-27 01:18:02.722Z127.482° SE
14 mins2024-12-27 03:00:02.722Z340.717° N2024-12-27 03:06:02.722Z277.366° WNW39.832°2024-12-27 03:14:02.722Z194.409° SSW
11 mins2024-12-27 13:53:02.722Z130.036° SE2024-12-27 13:58:02.722Z84.867° E25.506°2024-12-27 14:04:02.722Z32.625° NE
14 mins2024-12-27 15:46:02.722Z207.969° SW2024-12-27 15:52:02.722Z272.189° WNW40.072°2024-12-27 16:00:02.722Z359.102° N
|